QPF
0.06 0.05 0.04 0.04 0.05 0.05 0.05 0.05 0.06 0.07 0.08 0.09 0.11 0.11 0.09 0.06 0.04 0.02 0.01 0.00 0.00 0.01 0.01 0.01 0.01 0.01 0.02 0.02 0.02 0.02 0.02 0.04 0.04 0.05 0.03 0.03 0.03 0.02 0.02 0.02 0.03 0.04 0.05
0.05 0.03 0.02 0.03 0.04 0.05 0.06 0.07 0.08 0.09 0.09 0.09 0.09 0.08 0.06 0.05 0.04 0.03 0.02 0.01 0.01 0.01 0.01 0.01 0.02 0.02 0.02 0.02 0.02 0.02 0.02 0.03 0.04 0.04 0.04 0.03 0.02 0.03 0.03 0.02 0.02 0.02 0.02
0.04 0.04 0.03 0.04 0.04 0.05 0.06 0.07 0.09 0.12 0.12 0.11 0.09 0.08 0.07 0.06 0.06 0.05 0.03 0.02 0.01 0.01 0.01 0.01 0.01 0.01 0.01 0.02 0.02 0.02 0.02 0.02 0.03 0.03 0.03 0.03 0.03 0.03 0.03 0.02 0.01 0.01 0.01
0.04 0.04 0.03 0.03 0.05 0.05 0.05 0.08 0.14 0.13 0.11 0.09 0.08 0.08 0.08 0.08 0.07 0.06 0.04 0.03 0.02 0.01 0.01 0.01 0.01 0.01 0.02 0.03 0.03 0.02 0.03 0.04 0.04 0.04 0.03 0.03 0.04 0.03 0.04 0.02 0.01 0.01 0.02
0.02 0.03 0.03 0.02 0.02 0.03 0.02 0.03 0.06 0.10 0.12 0.11 0.08 0.08 0.09 0.08 0.07 0.06 0.04 0.03 0.03 0.02 0.02 0.01 0.02 0.02 0.03 0.03 0.03 0.03 0.03 0.03 0.03 0.03 0.03 0.03 0.04 0.04 0.03 0.02 0.02 0.02 0.02
0.01 0.01 0.03 0.03 0.03 0.04 0.03 0.02 0.04 0.06 0.09 0.13 0.12 0.11 0.10 0.07 0.05 0.04 0.03 0.03 0.03 0.03 0.03 0.02 0.02 0.02 0.02 0.02 0.02 0.02 0.02 0.02 0.02 0.03 0.02 0.03 0.04 0.03 0.03 0.02 0.03 0.03 0.04
0.01 0.01 0.02 0.03 0.03 0.04 0.04 0.04 0.05 0.09 0.13 0.10 0.09 0.09 0.07 0.04 0.03 0.02 0.02 0.02 0.03 0.03 0.03 0.02 0.02 0.02 0.01 0.01 0.01 0.01 0.02 0.03 0.03 0.03 0.03 0.03 0.04 0.04 0.04 0.03 0.03 0.04 0.05
0.01 0.01 0.02 0.02 0.03 0.04 0.05 0.05 0.07 0.09 0.09 0.08 0.07 0.07 0.05 0.03 0.03 0.03 0.03 0.03 0.03 0.02 0.02 0.03 0.03 0.02 0.02 0.02 0.01 0.01 0.01 0.02 0.03 0.03 0.04 0.04 0.06 0.06 0.06 0.05 0.05 0.05 0.05
0.01 0.01 0.01 0.02 0.03 0.04 0.05 0.07 0.14 0.11 0.07 0.09 0.09 0.06 0.04 0.02 0.04 0.03 0.03 0.03 0.03 0.02 0.02 0.02 0.02 0.01 0.02 0.02 0.02 0.02 0.02 0.02 0.02 0.02 0.03 0.04 0.05 0.06 0.06 0.06 0.07 0.06 0.05
0.02 0.01 0.02 0.02 0.02 0.03 0.04 0.07 0.12 0.15 0.12 0.09 0.07 0.05 0.04 0.03 0.03 0.03 0.03 0.03 0.03 0.03 0.03 0.04 0.03 0.02 0.02 0.02 0.02 0.03 0.03 0.02 0.02 0.02 0.02 0.03 0.04 0.04 0.05 0.05 0.07 0.09 0.08
0.01 0.01 0.02 0.03 0.03 0.03 0.05 0.07 0.09 0.10 0.10 0.07 0.04 0.03 0.03 0.02 0.03 0.03 0.02 0.02 0.02 0.02 0.02 0.02 0.03 0.03 0.01 0.01 0.01 0.01 0.01 0.01 0.01 0.01 0.02 0.02 0.03 0.03 0.03 0.02 0.03 0.05 0.05
0.02 0.02 0.03 0.03 0.04 0.04 0.05 0.07 0.07 0.06 0.05 0.05 0.03 0.02 0.02 0.02 0.02 0.02 0.02 0.02 0.02 0.02 0.01 0.01 0.01 0.01 0.01 0.01 0.01 0.01 0.01 0.01 0.01 0.01 0.01 0.01 0.01 0.01 0.01 0.02 0.02 0.03 0.04
0.03 0.03 0.04 0.04 0.04 0.03 0.03 0.04 0.05 0.06 0.04 0.04 0.02 0.01 0.01 0.01 0.01 0.01 0.01 0.01 0.02 0.02 0.02 0.01 0.01 0.01 0.01 0.01 0.01 0.01 0.01 0.01 0.01 0.01 0.01 0.01 0.01 0.01 0.01 0.02 0.02 0.02 0.02
0.03 0.03 0.03 0.03 0.03 0.04 0.03 0.03 0.03 0.03 0.04 0.03 0.02 0.01 0.01 0.01 0.01 0.01 0.01 0.00 0.01 0.01 0.01 0.01 0.01 0.01 0.02 0.01 0.01 0.01 0.01 0.01 0.01 0.01 0.01 0.01 0.01 0.02 0.02 0.03 0.03 0.03 0.03
0.02 0.02 0.02 0.02 0.03 0.03 0.03 0.03 0.04 0.04 0.04 0.03 0.02 0.01 0.01 0.01 0.01 0.01 0.01 0.01 0.01 0.01 0.01 0.02 0.02 0.02 0.02 0.02 0.01 0.01 0.01 0.01 0.01 0.02 0.02 0.02 0.04 0.05 0.04 0.04 0.04 0.04 0.04
0.02 0.02 0.02 0.03 0.04 0.05 0.04 0.04 0.04 0.03 0.03 0.03 0.01 0.01 0.01 0.01 0.01 0.01 0.01 0.01 0.01 0.01 0.02 0.03 0.03 0.02 0.02 0.02 0.02 0.02 0.02 0.02 0.02 0.03 0.03 0.04 0.05 0.05 0.05 0.04 0.04 0.03 0.03
0.03 0.03 0.03 0.04 0.06 0.06 0.05 0.05 0.03 0.02 0.01 0.01 0.00 0.00 0.00 0.00 0.00 0.01 0.01 0.01 0.01 0.01 0.02 0.03 0.03 0.02 0.02 0.01 0.01 0.02 0.02 0.02 0.03 0.03 0.03 0.03 0.03 0.03 0.03 0.04 0.05 0.04 0.05
0.02 0.03 0.04 0.05 0.07 0.07 0.05 0.04 0.03 0.02 0.01 0.01 0.00 0.00 0.00 0.00 0.00 0.00 0.01 0.01 0.01 0.01 0.01 0.01 0.02 0.02 0.01 0.01 0.01 0.01 0.01 0.02 0.02 0.02 0.03 0.03 0.03 0.03 0.03 0.03 0.04 0.05 0.06
0.02 0.02 0.03 0.07 0.08 0.07 0.05 0.03 0.03 0.02 0.01 0.01 0.01 0.01 0.01 0.01 0.00 0.00 0.00 0.00 0.00 0.01 0.01 0.01 0.01 0.01 0.01 0.01 0.01 0.02 0.02 0.02 0.02 0.02 0.02 0.02 0.02 0.02 0.03 0.03 0.04 0.03 0.03
0.01 0.02 0.05 0.07 0.07 0.06 0.04 0.02 0.01 0.01 0.01 0.01 0.01 0.01 0.01 0.01 0.01 0.01 0.01 0.01 0.00 0.01 0.01 0.01 0.01 0.01 0.01 0.01 0.01 0.01 0.01 0.01 0.01 0.02 0.02 0.02 0.02 0.02 0.03 0.03 0.04 0.04 0.04
0.01 0.03 0.05 0.06 0.05 0.04 0.02 0.01 0.01 0.01 0.01 0.00 0.00 0.00 0.01 0.01 0.01 0.01 0.01 0.01 0.01 0.00 0.01 0.01 0.01 0.01 0.01 0.00 0.00 0.01 0.01 0.01 0.02 0.02 0.02 0.03 0.03 0.03 0.03 0.03 0.03 0.03 0.04
0.02 0.03 0.05 0.04 0.04 0.02 0.01 0.01 0.00 0.00 0.00 0.00 0.00 0.00 0.00 0.01 0.01 0.01 0.01 0.01 0.01 0.00 0.01 0.01 0.01 0.00 0.00 0.00 0.01 0.01 0.01 0.02 0.03 0.02 0.01 0.02 0.03 0.03 0.02 0.03 0.03 0.03 0.03
0.03 0.04 0.04 0.04 0.04 0.03 0.01 0.00 0.00 0.00 0.00 0.01 0.01 0.01 0.01 0.01 0.01 0.01 0.02 0.02 0.01 0.01 0.00 0.00 0.00 0.00 0.00 0.00 0.01 0.01 0.01 0.01 0.01 0.01 0.00 0.01 0.01 0.02 0.02 0.02 0.03 0.03 0.03
0.03 0.03 0.03 0.04 0.04 0.03 0.01 0.01 0.00 0.00 0.00 0.00 0.01 0.02 0.01 0.01 0.01 0.01 0.01 0.01 0.01 0.01 0.01 0.01 0.01 0.00 0.00 0.00 0.00 0.00 0.00 0.00 0.00 0.00 0.00 0.00 0.00 0.00 0.01 0.00 0.01 0.01 0.01
0.03 0.03 0.03 0.03 0.03 0.03 0.01 0.01 0.00 0.00 0.00 0.00 0.01 0.02 0.02 0.01 0.01 0.01 0.00 0.00 0.00 0.00 0.00 0.00 0.00 0.00 0.00 0.00 0.00 0.00 0.00 0.00 0.00 0.00 0.00 0.00 0.00 0.00 0.00 0.00 0.01 0.01 0.01
0.02 0.01 0.01 0.01 0.02 0.02 0.02 0.01 0.00 0.00 0.00 0.01 0.01 0.01 0.02 0.02 0.01 0.00 0.00 0.01 0.01 0.01 0.00 0.00 0.00 0.00 0.00 0.00 0.00 0.00 0.00 0.00 0.00 0.00 0.00 0.00 0.00 0.00 0.00 0.00 0.01 0.01 0.01
MSLP
1013.64 1013.90 1014.17 1014.38 1014.51 1014.52 1014.40 1014.18 1013.90 1013.59 1013.28 1012.98 1012.71 1012.44 1012.14 1011.81 1011.42 1010.98 1010.50 1010.00 1009.52 1009.07 1008.67 1008.31 1007.99 1007.66 1007.32 1006.92 1006.47 1005.95 1005.39 1004.81 1004.24 1003.71 1003.22 1002.80 1002.43 1002.10 1001.78 1001.48 1001.18 1000.89 1000.62
1013.54 1013.77 1014.00 1014.17 1014.24 1014.19 1014.02 1013.75 1013.43 1013.09 1012.76 1012.46 1012.19 1011.92 1011.63 1011.29 1010.89 1010.43 1009.91 1009.35 1008.79 1008.26 1007.77 1007.33 1006.93 1006.55 1006.18 1005.78 1005.34 1004.86 1004.35 1003.82 1003.30 1002.81 1002.36 1001.95 1001.59 1001.26 1000.95 1000.64 1000.33 1000.02 999.74
1013.37 1013.57 1013.75 1013.87 1013.89 1013.78 1013.56 1013.26 1012.91 1012.55 1012.21 1011.91 1011.64 1011.37 1011.09 1010.76 1010.36 1009.88 1009.33 1008.73 1008.11 1007.51 1006.94 1006.43 1005.97 1005.54 1005.14 1004.73 1004.31 1003.86 1003.38 1002.90 1002.42 1001.97 1001.55 1001.16 1000.82 1000.49 1000.18 999.87 999.55 999.23 998.92
1013.12 1013.29 1013.43 1013.50 1013.47 1013.32 1013.07 1012.74 1012.37 1012.00 1011.65 1011.35 1011.08 1010.82 1010.55 1010.21 1009.81 1009.32 1008.74 1008.11 1007.45 1006.80 1006.18 1005.61 1005.10 1004.63 1004.20 1003.78 1003.36 1002.93 1002.48 1002.03 1001.58 1001.16 1000.77 1000.41 1000.09 999.78 999.48 999.17 998.85 998.52 998.18
1012.79 1012.93 1013.03 1013.07 1013.00 1012.83 1012.55 1012.21 1011.84 1011.46 1011.12 1010.81 1010.53 1010.27 1009.98 1009.64 1009.22 1008.72 1008.13 1007.47 1006.79 1006.10 1005.45 1004.84 1004.29 1003.79 1003.34 1002.91 1002.48 1002.05 1001.62 1001.18 1000.76 1000.36 1000.00 999.67 999.37 999.09 998.82 998.52 998.21 997.86 997.50
1012.38 1012.49 1012.58 1012.59 1012.51 1012.33 1012.06 1011.72 1011.35 1010.97 1010.62 1010.30 1010.00 1009.71 1009.39 1009.03 1008.58 1008.05 1007.45 1006.78 1006.07 1005.37 1004.70 1004.07 1003.50 1002.99 1002.51 1002.07 1001.63 1001.20 1000.76 1000.34 999.93 999.55 999.20 998.91 998.64 998.39 998.15 997.88 997.58 997.24 996.85
1011.92 1012.02 1012.10 1012.11 1012.03 1011.86 1011.60 1011.27 1010.91 1010.53 1010.16 1009.81 1009.48 1009.14 1008.78 1008.36 1007.88 1007.32 1006.68 1006.00 1005.29 1004.59 1003.91 1003.29 1002.71 1002.19 1001.70 1001.24 1000.79 1000.35 999.90 999.47 999.07 998.69 998.37 998.10 997.86 997.65 997.45 997.22 996.95 996.62 996.23
1011.45 1011.55 1011.63 1011.65 1011.59 1011.44 1011.20 1010.89 1010.52 1010.14 1009.74 1009.35 1008.96 1008.55 1008.12 1007.64 1007.10 1006.50 1005.84 1005.15 1004.45 1003.75 1003.09 1002.47 1001.91 1001.39 1000.90 1000.43 999.97 999.50 999.05 998.60 998.19 997.82 997.50 997.24 997.04 996.86 996.70 996.51 996.27 995.97 995.59
1011.03 1011.14 1011.22 1011.25 1011.20 1011.07 1010.84 1010.54 1010.17 1009.77 1009.33 1008.88 1008.42 1007.94 1007.43 1006.88 1006.28 1005.64 1004.96 1004.26 1003.57 1002.89 1002.25 1001.66 1001.12 1000.61 1000.12 999.65 999.18 998.70 998.23 997.76 997.33 996.95 996.63 996.38 996.19 996.04 995.91 995.76 995.56 995.29 994.95
1010.69 1010.79 1010.88 1010.91 1010.87 1010.74 1010.52 1010.21 1009.83 1009.39 1008.91 1008.40 1007.86 1007.30 1006.72 1006.10 1005.45 1004.78 1004.09 1003.39 1002.71 1002.07 1001.46 1000.90 1000.38 999.89 999.42 998.95 998.47 997.98 997.49 997.00 996.55 996.15 995.81 995.55 995.36 995.22 995.11 994.99 994.83 994.60 994.29
1010.45 1010.54 1010.61 1010.63 1010.58 1010.44 1010.20 1009.87 1009.45 1008.97 1008.44 1007.86 1007.26 1006.64 1006.00 1005.33 1004.65 1003.96 1003.28 1002.60 1001.95 1001.34 1000.78 1000.25 999.76 999.30 998.84 998.38 997.89 997.39 996.88 996.37 995.89 995.46 995.10 994.81 994.60 994.45 994.34 994.23 994.10 993.91 993.65
1010.30 1010.36 1010.40 1010.39 1010.31 1010.13 1009.86 1009.48 1009.02 1008.49 1007.91 1007.28 1006.64 1005.97 1005.29 1004.61 1003.93 1003.25 1002.59 1001.95 1001.34 1000.77 1000.25 999.76 999.30 998.86 998.42 997.96 997.48 996.98 996.45 995.93 995.42 994.95 994.55 994.22 993.97 993.79 993.65 993.54 993.42 993.26 993.05
1010.19 1010.22 1010.21 1010.16 1010.02 1009.79 1009.46 1009.04 1008.53 1007.95 1007.33 1006.67 1006.00 1005.32 1004.64 1003.98 1003.32 1002.68 1002.07 1001.47 1000.92 1000.39 999.91 999.46 999.03 998.61 998.18 997.73 997.26 996.76 996.23 995.69 995.16 994.66 994.21 993.83 993.52 993.28 993.10 992.96 992.83 992.70 992.53
1010.09 1010.07 1010.01 1009.90 1009.70 1009.41 1009.02 1008.54 1007.98 1007.37 1006.72 1006.05 1005.38 1004.72 1004.08 1003.46 1002.86 1002.28 1001.72 1001.19 1000.69 1000.21 999.76 999.34 998.93 998.53 998.12 997.69 997.23 996.74 996.22 995.67 995.13 994.59 994.10 993.66 993.28 992.97 992.73 992.54 992.38 992.25 992.11
1009.95 1009.89 1009.78 1009.60 1009.35 1008.99 1008.55 1008.02 1007.42 1006.78 1006.13 1005.47 1004.83 1004.21 1003.63 1003.08 1002.56 1002.05 1001.57 1001.10 1000.64 1000.21 999.79 999.39 999.00 998.61 998.22 997.82 997.38 996.91 996.41 995.88 995.33 994.77 994.23 993.73 993.28 992.89 992.57 992.30 992.10 991.94 991.82
1009.74 1009.65 1009.50 1009.28 1008.97 1008.57 1008.08 1007.52 1006.91 1006.26 1005.62 1004.99 1004.40 1003.85 1003.34 1002.87 1002.42 1001.99 1001.58 1001.16 1000.76 1000.35 999.96 999.58 999.20 998.84 998.47 998.09 997.69 997.26 996.80 996.29 995.75 995.19 994.62 994.05 993.53 993.05 992.63 992.28 992.01 991.81 991.67
1009.48 1009.36 1009.19 1008.94 1008.61 1008.18 1007.67 1007.10 1006.49 1005.86 1005.24 1004.66 1004.12 1003.64 1003.21 1002.81 1002.44 1002.09 1001.73 1001.36 1000.99 1000.61 1000.24 999.87 999.51 999.16 998.83 998.49 998.14 997.77 997.35 996.89 996.37 995.81 995.22 994.61 994.00 993.43 992.91 992.47 992.11 991.84 991.68
1009.17 1009.06 1008.88 1008.63 1008.30 1007.87 1007.37 1006.81 1006.22 1005.62 1005.05 1004.52 1004.04 1003.63 1003.26 1002.93 1002.62 1002.31 1001.99 1001.66 1001.31 1000.95 1000.58 1000.23 999.89 999.58 999.28 999.00 998.71 998.40 998.04 997.64 997.16 996.61 996.00 995.35 994.68 994.01 993.39 992.84 992.38 992.04 991.82
1008.87 1008.77 1008.61 1008.38 1008.07 1007.67 1007.19 1006.67 1006.12 1005.58 1005.05 1004.58 1004.16 1003.80 1003.48 1003.20 1002.93 1002.65 1002.35 1002.04 1001.70 1001.34 1000.99 1000.65 1000.33 1000.05 999.80 999.58 999.36 999.12 998.84 998.49 998.05 997.53 996.91 996.23 995.49 994.74 994.02 993.36 992.81 992.37 992.08
1008.62 1008.54 1008.41 1008.21 1007.94 1007.58 1007.16 1006.70 1006.21 1005.72 1005.26 1004.84 1004.47 1004.15 1003.87 1003.61 1003.36 1003.09 1002.80 1002.48 1002.14 1001.78 1001.44 1001.11 1000.82 1000.58 1000.38 1000.21 1000.06 999.89 999.67 999.38 998.99 998.48 997.86 997.15 996.36 995.54 994.73 993.97 993.32 992.80 992.44
1008.45 1008.39 1008.29 1008.13 1007.91 1007.61 1007.26 1006.87 1006.45 1006.04 1005.64 1005.28 1004.95 1004.67 1004.40 1004.15 1003.89 1003.62 1003.31 1002.98 1002.62 1002.26 1001.91 1001.60 1001.33 1001.12 1000.96 1000.84 1000.74 1000.63 1000.46 1000.21 999.85 999.37 998.75 998.01 997.18 996.31 995.43 994.60 993.86 993.26 992.84
1008.36 1008.32 1008.25 1008.14 1007.97 1007.74 1007.47 1007.16 1006.82 1006.49 1006.16 1005.85 1005.57 1005.31 1005.06 1004.80 1004.52 1004.22 1003.89 1003.53 1003.15 1002.77 1002.42 1002.10 1001.84 1001.64 1001.50 1001.41 1001.34 1001.26 1001.12 1000.90 1000.56 1000.08 999.46 998.71 997.85 996.94 996.02 995.14 994.36 993.71 993.24
1008.37 1008.34 1008.30 1008.22 1008.10 1007.95 1007.75 1007.53 1007.29 1007.04 1006.79 1006.54 1006.30 1006.06 1005.81 1005.54 1005.24 1004.91 1004.54 1004.14 1003.72 1003.31 1002.92 1002.58 1002.30 1002.09 1001.95 1001.85 1001.78 1001.69 1001.56 1001.33 1000.99 1000.51 999.89 999.13 998.28 997.36 996.43 995.54 994.74 994.08 993.59
1008.45 1008.43 1008.40 1008.36 1008.30 1008.22 1008.10 1007.97 1007.82 1007.66 1007.49 1007.31 1007.11 1006.90 1006.65 1006.37 1006.04 1005.67 1005.25 1004.80 1004.33 1003.86 1003.43 1003.04 1002.71 1002.46 1002.27 1002.13 1002.01 1001.89 1001.72 1001.46 1001.10 1000.61 999.99 999.24 998.40 997.51 996.61 995.75 994.98 994.34 993.87
1008.61 1008.59 1008.58 1008.58 1008.56 1008.54 1008.51 1008.47 1008.41 1008.34 1008.25 1008.14 1007.99 1007.80 1007.57 1007.27 1006.91 1006.49 1006.02 1005.50 1004.97 1004.43 1003.92 1003.46 1003.05 1002.72 1002.45 1002.23 1002.03 1001.83 1001.60 1001.30 1000.90 1000.39 999.77 999.05 998.25 997.40 996.57 995.78 995.08 994.50 994.09
1008.83 1008.83 1008.84 1008.87 1008.91 1008.95 1008.99 1009.04 1009.07 1009.08 1009.07 1009.02 1008.92 1008.76 1008.53 1008.23 1007.84 1007.37 1006.84 1006.25 1005.64 1005.01 1004.41 1003.85 1003.34 1002.90 1002.51 1002.18 1001.88 1001.59 1001.27 1000.90 1000.46 999.93 999.32 998.63 997.89 997.12 996.37 995.68 995.08 994.60 994.27
Thickness
5673 5670 5668 5665 5662 5660 5658 5656 5654 5653 5651 5649 5648 5646 5643 5640 5637 5633 5630 5627 5624 5622 5620 5617 5614 5612 5609 5608 5606 5604 5601 5599 5598 5602 5604 5606 5607 5607 5609 5609 5610 5610 5611
5667 5664 5662 5659 5657 5654 5653 5652 5651 5649 5648 5646 5644 5642 5639 5637 5634 5631 5627 5625 5622 5619 5617 5614 5612 5610 5607 5605 5603 5601 5599 5598 5596 5596 5599 5600 5602 5603 5603 5603 5604 5605 5606
5661 5659 5656 5654 5651 5649 5648 5647 5646 5645 5644 5643 5641 5638 5636 5633 5631 5628 5625 5622 5619 5617 5615 5612 5609 5606 5604 5602 5600 5598 5597 5597 5594 5593 5594 5596 5597 5598 5598 5598 5599 5600 5602
5655 5653 5650 5649 5647 5645 5644 5643 5642 5640 5639 5639 5637 5635 5632 5630 5628 5625 5623 5620 5618 5616 5614 5611 5608 5605 5603 5600 5598 5596 5594 5592 5591 5590 5589 5590 5591 5592 5591 5591 5592 5594 5596
5649 5647 5645 5644 5643 5641 5640 5639 5638 5637 5637 5635 5633 5631 5629 5626 5624 5622 5620 5619 5615 5613 5612 5609 5607 5605 5603 5599 5597 5594 5592 5589 5587 5586 5585 5585 5586 5586 5586 5587 5587 5588 5590
5644 5642 5641 5640 5638 5637 5636 5635 5634 5634 5633 5632 5629 5627 5624 5623 5622 5620 5618 5615 5613 5610 5609 5607 5606 5604 5602 5599 5597 5595 5592 5588 5585 5584 5582 5581 5582 5582 5582 5583 5581 5581 5583
5639 5638 5637 5636 5634 5634 5633 5631 5630 5630 5629 5628 5626 5624 5621 5620 5619 5617 5616 5613 5610 5608 5606 5604 5603 5603 5599 5596 5594 5593 5591 5589 5587 5583 5581 5580 5580 5580 5579 5578 5578 5577 5579
5635 5634 5633 5631 5630 5629 5628 5627 5626 5626 5625 5624 5623 5622 5619 5618 5617 5615 5613 5610 5607 5606 5604 5602 5600 5598 5597 5593 5591 5589 5588 5586 5585 5583 5580 5580 5579 5578 5576 5575 5575 5574 5576
5631 5629 5628 5627 5625 5624 5623 5623 5623 5622 5621 5621 5620 5619 5616 5615 5615 5613 5611 5607 5604 5603 5602 5600 5598 5596 5594 5591 5588 5586 5585 5584 5584 5581 5580 5578 5578 5576 5574 5571 5570 5569 5570
5627 5626 5625 5624 5622 5621 5620 5619 5619 5618 5618 5618 5617 5616 5614 5612 5611 5610 5608 5604 5601 5600 5598 5597 5596 5594 5591 5588 5585 5582 5580 5580 5579 5578 5577 5576 5575 5573 5572 5569 5568 5566 5565
5626 5625 5623 5621 5620 5619 5618 5617 5616 5616 5615 5614 5613 5612 5611 5610 5609 5607 5605 5601 5599 5597 5595 5594 5593 5591 5589 5586 5583 5580 5579 5578 5575 5573 5571 5571 5570 5569 5568 5567 5566 5564 5562
5623 5622 5620 5618 5618 5618 5616 5615 5614 5612 5611 5610 5609 5608 5607 5607 5606 5605 5603 5600 5598 5594 5592 5591 5590 5589 5587 5584 5583 5581 5579 5575 5572 5569 5568 5567 5566 5566 5565 5565 5564 5563 5562
5619 5618 5617 5616 5615 5614 5613 5611 5610 5609 5607 5607 5605 5603 5603 5603 5603 5602 5600 5598 5596 5592 5590 5589 5587 5586 5584 5582 5581 5579 5576 5572 5568 5565 5564 5563 5563 5563 5562 5562 5561 5560 5559
5616 5615 5614 5613 5612 5612 5610 5609 5608 5607 5605 5604 5603 5602 5600 5600 5599 5598 5596 5594 5593 5590 5587 5586 5584 5582 5580 5579 5577 5575 5572 5568 5565 5562 5560 5559 5559 5559 5558 5557 5555 5554 5553
5614 5613 5613 5612 5610 5609 5608 5607 5607 5606 5605 5603 5602 5601 5599 5597 5598 5596 5593 5591 5588 5586 5583 5580 5579 5576 5574 5573 5571 5569 5566 5563 5560 5558 5556 5555 5555 5554 5553 5552 5550 5548 5546
5613 5612 5611 5610 5609 5608 5607 5606 5607 5606 5606 5605 5603 5601 5599 5598 5596 5593 5591 5588 5585 5583 5578 5574 5572 5571 5569 5566 5564 5562 5560 5558 5555 5553 5551 5550 5549 5548 5547 5547 5545 5543 5542
5611 5611 5610 5610 5609 5608 5607 5605 5604 5605 5606 5605 5603 5601 5598 5596 5593 5591 5588 5585 5582 5579 5573 5571 5568 5566 5564 5562 5560 5557 5555 5553 5550 5548 5546 5545 5544 5543 5542 5541 5540 5538 5538
5612 5611 5610 5609 5608 5608 5607 5606 5604 5603 5602 5601 5601 5599 5597 5594 5592 5589 5585 5582 5578 5574 5570 5567 5565 5563 5560 5558 5556 5553 5550 5547 5544 5542 5540 5539 5538 5537 5536 5535 5534 5533 5532
5611 5610 5610 5609 5609 5609 5609 5607 5605 5604 5601 5598 5597 5597 5596 5593 5590 5587 5582 5578 5575 5571 5568 5565 5562 5560 5557 5554 5551 5548 5545 5542 5539 5536 5535 5533 5532 5531 5530 5529 5529 5528 5527
5611 5612 5611 5610 5610 5610 5609 5607 5605 5603 5600 5598 5596 5595 5593 5590 5586 5583 5579 5575 5572 5569 5565 5562 5559 5556 5553 5549 5546 5543 5540 5536 5533 5530 5528 5527 5526 5524 5524 5523 5523 5522 5521
5612 5612 5612 5612 5611 5610 5609 5607 5605 5603 5600 5597 5596 5595 5592 5588 5585 5581 5578 5574 5570 5566 5562 5559 5555 5552 5548 5544 5540 5537 5534 5530 5527 5524 5522 5521 5520 5519 5518 5518 5517 5516 5516
5613 5612 5612 5612 5612 5611 5610 5608 5606 5603 5600 5597 5595 5594 5591 5586 5583 5579 5575 5572 5568 5564 5560 5556 5552 5548 5544 5539 5536 5532 5528 5524 5522 5519 5517 5516 5515 5514 5513 5513 5512 5511 5510
5613 5613 5613 5612 5612 5611 5610 5608 5605 5602 5599 5597 5595 5592 5588 5584 5581 5577 5573 5569 5565 5561 5557 5553 5548 5543 5539 5535 5532 5528 5523 5520 5517 5514 5512 5511 5509 5509 5508 5507 5507 5506 5505
5614 5614 5613 5612 5611 5610 5608 5606 5604 5602 5599 5597 5594 5591 5587 5583 5579 5575 5571 5567 5563 5559 5555 5550 5545 5540 5536 5532 5528 5524 5520 5516 5514 5511 5509 5506 5505 5504 5503 5502 5502 5501 5500
5614 5613 5613 5611 5610 5608 5606 5605 5603 5601 5598 5596 5592 5589 5586 5582 5578 5574 5570 5566 5561 5556 5552 5547 5542 5537 5533 5528 5524 5520 5517 5514 5511 5508 5506 5504 5502 5501 5500 5498 5497 5496 5495
5614 5613 5612 5611 5609 5607 5605 5602 5601 5599 5597 5594 5591 5587 5583 5579 5575 5572 5568 5563 5558 5554 5549 5544 5539 5534 5530 5525 5520 5516 5513 5511 5508 5506 5503 5501 5500 5498 5496 5494 5493 5491 5490